Topeka, KS

6:22 PM CST on November 21, 2019 (GMT -0600)
Billard Municipal

Weather History for KTOP - October, 2019

Change the Weather History Date:

Sunday, October 13, 2019

  Actual Average Record
Temperature  
Mean Temperature 50 °F 58 °F  
Max Temperature 66 °F 70 °F 91 °F (1975)
Min Temperature 33 °F 46 °F 26 °F (2006)
Degree Days  
Heating Degree Days 15 8  
Month to date heating degree days 113 89  
Since 1 July heating degree days 113 156  
Cooling Degree Days 0 1  
Month to date cooling degree days 20 19  
Year to date cooling degree days 1609 1412  
Moisture  
Dew Point 32 °F    
Average Humidity 58    
Maximum Humidity 92    
Minimum Humidity 24    
Precipitation  
Precipitation 0.00 in 0.10 in 2.05 in (1930)
Month to date precipitation 1.52 1.38  
Year to date precipitation 44.91 31.61  
Snow  
Snow 0.00 in 0.10 in T in (1986)
Month to date snowfall 0.0 0.1  
Year to date snowfall 18.5 11.4  
Since 1 July snowfall T 0.1  
Snow Depth 0.00 in    
Sea Level Pressure  
Sea Level Pressure 29.97 in    
Wind  
Wind Speed 1 mph (West)    
Max Wind Speed 9 mph    
Max Gust Speed 14 mph    
Visibility 10 miles    
Events      
T = Trace of Precipitation, MM = Missing Value Source: NWS Daily Summary

Daily Weather History Graph

Daily Weather History Graph

Search for Another Location

Airport or City:

Astronomy

Oct. 13, 2019 Rise Set
Actual Time 7:29 AM CDT 6:46 PM CDT
Civil Twilight 7:03 AM CDT 7:13 PM CDT
Nautical Twilight 6:32 AM CDT 7:44 PM CDT
Astronomical Twilight 6:01 AM CDT 8:15 PM CDT
Moon 7:09 PM CDT (10/13) 7:05 AM CDT (10/13)
Length of Visible Light 12h 10m
Length of Day
11h 17m
Full, 100% of the Moon is Illuminated
Oct 13
Full
Oct 13
Full
Oct 21
Last Quarter
Oct 27
New
Nov 4
First Quarter

Hourly Weather History & Observations

Time (CDT) Temp. Windchill Dew Point Humidity Pressure Visibility Wind Dir Wind Speed Gust Speed Precip Events Conditions
12:53 AM 45.0 °F - 34.0 °F 65% 29.92 in 10.0 mi Calm Calm - N/A   Clear
1:53 AM 41.0 °F - 34.0 °F 76% 29.92 in 10.0 mi Calm Calm - N/A   Clear
2:53 AM 41.0 °F - 35.1 °F 79% 29.93 in 10.0 mi Calm Calm - N/A   Clear
3:53 AM 36.0 °F - 30.9 °F 82% 29.93 in 10.0 mi Calm Calm - N/A   Clear
4:53 AM 39.0 °F - 35.1 °F 86% 29.94 in 10.0 mi Calm Calm - N/A   Clear
5:53 AM 36.0 °F - 33.1 °F 89% 29.94 in 9.0 mi Calm Calm - N/A   Clear
6:33 AM 36.0 °F 33.3 °F 32.0 °F 86% 29.95 in 10.0 mi SSW 3.5 mph - N/A   Scattered Clouds
6:53 AM 33.1 °F - 30.0 °F 89% 29.95 in 10.0 mi Calm Calm - N/A   Scattered Clouds
7:53 AM 36.0 °F - 32.0 °F 86% 29.96 in 10.0 mi Calm Calm - N/A   Clear
8:53 AM 41.0 °F - 37.9 °F 89% 29.98 in 10.0 mi Calm Calm - N/A   Clear
9:53 AM 50.0 °F - 37.0 °F 61% 29.99 in 10.0 mi Calm Calm - N/A   Clear
10:53 AM 55.9 °F - 24.1 °F 29% 30.00 in 10.0 mi NE 4.6 mph - N/A   Clear
11:53 AM 59.0 °F - 25.0 °F 27% 30.00 in 10.0 mi NW 5.8 mph - N/A   Clear
12:53 PM 60.1 °F - 25.0 °F 26% 30.00 in 10.0 mi NW 5.8 mph - N/A   Clear
1:53 PM 63.0 °F - 27.0 °F 26% 29.98 in 10.0 mi NW 5.8 mph - N/A   Clear
2:53 PM 64.0 °F - 27.0 °F 25% 29.96 in 10.0 mi Calm Calm - N/A   Clear
3:53 PM 64.0 °F - 27.0 °F 25% 29.95 in 10.0 mi South 4.6 mph - N/A   Clear
4:53 PM 64.9 °F - 28.0 °F 25% 29.95 in 6.0 mi SW 4.6 mph - N/A   Haze
5:53 PM 64.0 °F - 30.0 °F 28% 29.96 in 7.0 mi West 3.5 mph - N/A   Clear
6:53 PM 55.9 °F - 37.0 °F 49% 29.97 in 9.0 mi Calm Calm - N/A   Clear
7:53 PM 50.0 °F - 39.0 °F 66% 29.99 in 10.0 mi Calm Calm - N/A   Clear
8:53 PM 46.0 °F - 39.0 °F 76% 30.00 in 10.0 mi Calm Calm - N/A   Clear
9:53 PM 44.1 °F - 37.9 °F 79% 30.01 in 10.0 mi Calm Calm - N/A   Clear
10:53 PM 44.1 °F - 39.9 °F 85% 30.02 in 10.0 mi Calm Calm - N/A   Clear
11:53 PM 39.9 °F - 36.0 °F 86% 30.02 in 10.0 mi Calm Calm - N/A   Clear